Powrót do katalogu

STARLINK-36902

AktywnyŁącznośćVLEO
NORAD 68043·PAYLOAD·🇺🇸 United States

Wystrzelony Mar 2, 2026 z Vandenberg Space Force Base

Loading…

Następne Przeloty (najbliższe 24 godziny)

TLE

ŚwieżeSource: CelesTrak SupGP

Epoka: Sep 14, 2026, 23:28 UTC

1 68043C 26041D   26257.97826389  .00028097  00000+0  82994-3 0  2575
2 68043  53.1580 247.5029 0001462  81.2049 274.3219 15.34382992    16

Śledź STARLINK-36902 w czasie rzeczywistym z AllMySat

Download on the App Store